Location: D�pe
(52.6057°N, 8.1808°E)
Time: 13:39:49
(UTC+00:00)

S3M - Pass Details

Date: 29 October 2020
Orbit: 950 x 1003 km, 83.0° (Epoch: 28 November)

Event Time Altitude Azimuth Distance (km) Brightness Sun altitude
Rises 17:15:04 0° 163° (SSE) 3,614 6.9 -11.5°
Reaches altitude 10° 17:17:40 10° 156° (SSE) 2,677 6.1 -11.9°
Maximum altitude 17:23:19 41° 88° (E) 1,364 4.3 -12.8°
Drops below altitude 10° 17:29:03 10° 21° (NNE) 2,719 6.1 -13.6°
Sets 17:31:42 0° 15° (NNE) 3,678 6.8 -14.0°
